Year,Month,Day,Hour,Minute,Value (Times are PST for temperature in C)
2016,05,07,00,00,15.70
2016,05,07,00,01,15.70
2016,05,07,00,02,15.70
2016,05,07,00,03,15.70
2016,05,07,00,04,15.70
2016,05,07,00,05,15.70
2016,05,07,00,06,15.60
2016,05,07,00,07,15.60
2016,05,07,00,08,15.60
2016,05,07,00,09,15.50
2016,05,07,00,10,15.50
2016,05,07,00,11,15.40
2016,05,07,00,12,15.40
2016,05,07,00,13,15.40
2016,05,07,00,14,15.30
2016,05,07,00,15,15.30
2016,05,07,00,16,15.30
2016,05,07,00,17,15.20
2016,05,07,00,18,15.20
2016,05,07,00,19,15.20
2016,05,07,00,20,15.10
2016,05,07,00,21,15.10
2016,05,07,00,22,15.10
2016,05,07,00,23,15.00
2016,05,07,00,24,15.00
2016,05,07,00,25,15.00
2016,05,07,00,26,14.90
2016,05,07,00,27,14.90
2016,05,07,00,28,14.90
2016,05,07,00,29,14.80
2016,05,07,00,30,14.80
2016,05,07,00,31,14.80
2016,05,07,00,32,14.70
2016,05,07,00,33,14.70
2016,05,07,00,34,14.70
2016,05,07,00,35,14.70
2016,05,07,00,36,14.60
2016,05,07,00,37,14.60
2016,05,07,00,38,14.60
2016,05,07,00,39,14.50
2016,05,07,00,40,14.50
2016,05,07,00,41,14.40
2016,05,07,00,42,14.40
2016,05,07,00,43,14.30
2016,05,07,00,44,14.30
2016,05,07,00,45,14.20
2016,05,07,00,46,14.20
2016,05,07,00,47,14.20
2016,05,07,00,48,14.20
2016,05,07,00,49,14.10
2016,05,07,00,50,14.10
2016,05,07,00,51,14.10
2016,05,07,00,52,14.00
2016,05,07,00,53,14.00
2016,05,07,00,54,13.90
2016,05,07,00,55,13.90
2016,05,07,00,56,13.80
2016,05,07,00,57,13.80
2016,05,07,00,58,13.80
2016,05,07,00,59,13.70
2016,05,07,01,00,13.70
2016,05,07,01,01,13.70
2016,05,07,01,02,13.70
2016,05,07,01,03,13.70
2016,05,07,01,04,13.70
2016,05,07,01,05,13.60
2016,05,07,01,06,13.60
2016,05,07,01,07,13.50
2016,05,07,01,08,13.50
2016,05,07,01,09,13.40
2016,05,07,01,10,13.40
2016,05,07,01,11,13.40
2016,05,07,01,12,13.40
2016,05,07,01,13,13.30
2016,05,07,01,14,13.30
2016,05,07,01,15,13.30
2016,05,07,01,16,13.30
2016,05,07,01,17,13.30
2016,05,07,01,18,13.30
2016,05,07,01,19,13.40
2016,05,07,01,20,13.40
2016,05,07,01,21,13.40
2016,05,07,01,22,13.40
2016,05,07,01,23,13.40
2016,05,07,01,24,13.40
2016,05,07,01,25,13.40
2016,05,07,01,26,13.40
2016,05,07,01,27,13.40
2016,05,07,01,28,13.40
2016,05,07,01,29,13.30
2016,05,07,01,30,13.30
2016,05,07,01,31,13.30
2016,05,07,01,32,13.30
2016,05,07,01,33,13.20
2016,05,07,01,34,13.20
2016,05,07,01,35,13.10
2016,05,07,01,36,13.10
2016,05,07,01,37,13.00
2016,05,07,01,38,13.00
2016,05,07,01,39,12.90
2016,05,07,01,40,12.90
2016,05,07,01,41,12.90
2016,05,07,01,42,12.90
2016,05,07,01,43,12.80
2016,05,07,01,44,12.80
2016,05,07,01,45,12.80
2016,05,07,01,46,12.80
2016,05,07,01,47,12.80
2016,05,07,01,48,12.80
2016,05,07,01,49,12.80
2016,05,07,01,50,12.80
2016,05,07,01,51,12.80
2016,05,07,01,52,12.80
2016,05,07,01,53,12.80
2016,05,07,01,54,12.80
2016,05,07,01,55,12.80
2016,05,07,01,56,12.80
2016,05,07,01,57,12.80
2016,05,07,01,58,12.80
2016,05,07,01,59,12.80
2016,05,07,02,00,12.80
2016,05,07,02,01,12.80
2016,05,07,02,02,12.80
2016,05,07,02,03,12.80
2016,05,07,02,04,12.70
2016,05,07,02,05,12.70
2016,05,07,02,06,12.70
2016,05,07,02,07,12.70
2016,05,07,02,08,12.70
2016,05,07,02,09,12.70
2016,05,07,02,10,12.70
2016,05,07,02,11,12.60
2016,05,07,02,12,12.60
2016,05,07,02,13,12.60
2016,05,07,02,14,12.60
2016,05,07,02,15,12.60
2016,05,07,02,16,12.50
2016,05,07,02,17,12.50
2016,05,07,02,18,12.50
2016,05,07,02,19,12.40
2016,05,07,02,20,12.40
2016,05,07,02,21,12.40
2016,05,07,02,22,12.40
2016,05,07,02,23,12.40
2016,05,07,02,24,12.30
2016,05,07,02,25,12.30
2016,05,07,02,26,12.30
2016,05,07,02,27,12.30
2016,05,07,02,28,12.30
2016,05,07,02,29,12.30
2016,05,07,02,30,12.30
2016,05,07,02,31,12.30
2016,05,07,02,32,12.30
2016,05,07,02,33,12.30
2016,05,07,02,34,12.30
2016,05,07,02,35,12.30
2016,05,07,02,36,12.30
2016,05,07,02,37,12.30
2016,05,07,02,38,12.30
2016,05,07,02,39,12.30
2016,05,07,02,40,12.30
2016,05,07,02,41,12.30
2016,05,07,02,42,12.30
2016,05,07,02,43,12.30
2016,05,07,02,44,12.30
2016,05,07,02,45,12.30
2016,05,07,02,46,12.30
2016,05,07,02,47,12.30
2016,05,07,02,48,12.30
2016,05,07,02,49,12.30
2016,05,07,02,50,12.30
2016,05,07,02,51,12.30
2016,05,07,02,52,12.30
2016,05,07,02,53,12.30
2016,05,07,02,54,12.30
2016,05,07,02,55,12.30
2016,05,07,02,56,12.30
2016,05,07,02,57,12.30
2016,05,07,02,58,12.30
2016,05,07,02,59,12.30
2016,05,07,03,00,12.30
2016,05,07,03,01,12.30
2016,05,07,03,02,12.30
2016,05,07,03,03,12.30
2016,05,07,03,04,12.30
2016,05,07,03,05,12.30
2016,05,07,03,06,12.30
2016,05,07,03,07,12.30
2016,05,07,03,08,12.30
2016,05,07,03,09,12.30
2016,05,07,03,10,12.20
2016,05,07,03,11,12.20
2016,05,07,03,12,12.20
2016,05,07,03,13,12.20
2016,05,07,03,14,12.20
2016,05,07,03,15,12.20
2016,05,07,03,16,12.20
2016,05,07,03,17,12.20
2016,05,07,03,18,12.20
2016,05,07,03,19,12.20
2016,05,07,03,20,12.20
2016,05,07,03,21,12.20
2016,05,07,03,22,12.10
2016,05,07,03,23,12.10
2016,05,07,03,24,12.10
2016,05,07,03,25,12.10
2016,05,07,03,26,12.00
2016,05,07,03,27,12.00
2016,05,07,03,28,11.90
2016,05,07,03,29,11.90
2016,05,07,03,30,11.90
2016,05,07,03,31,11.80
2016,05,07,03,32,11.80
2016,05,07,03,33,11.80
2016,05,07,03,34,11.80
2016,05,07,03,35,11.70
2016,05,07,03,36,11.70
2016,05,07,03,37,11.70
2016,05,07,03,38,11.70
2016,05,07,03,39,11.60
2016,05,07,03,40,11.60
2016,05,07,03,41,11.60
2016,05,07,03,42,11.60
2016,05,07,03,43,11.60
2016,05,07,03,44,11.60
2016,05,07,03,45,11.50
2016,05,07,03,46,11.50
2016,05,07,03,47,11.50
2016,05,07,03,48,11.40
2016,05,07,03,49,11.40
2016,05,07,03,50,11.40
2016,05,07,03,51,11.40
2016,05,07,03,52,11.40
2016,05,07,03,53,11.40
2016,05,07,03,54,11.40
2016,05,07,03,55,11.40
2016,05,07,03,56,11.30
2016,05,07,03,57,11.30
2016,05,07,03,58,11.30
2016,05,07,03,59,11.30
2016,05,07,04,00,11.30
2016,05,07,04,01,11.30
2016,05,07,04,02,11.30
2016,05,07,04,03,11.20
2016,05,07,04,04,11.20
2016,05,07,04,05,11.20
2016,05,07,04,06,11.20
2016,05,07,04,07,11.20
2016,05,07,04,08,11.20
2016,05,07,04,09,11.20
2016,05,07,04,10,11.20
2016,05,07,04,11,11.20
2016,05,07,04,12,11.10
2016,05,07,04,13,11.20
2016,05,07,04,14,11.10
2016,05,07,04,15,11.10
2016,05,07,04,16,11.10
2016,05,07,04,17,11.10
2016,05,07,04,18,11.20
2016,05,07,04,19,11.20
2016,05,07,04,20,11.20
2016,05,07,04,21,11.20
2016,05,07,04,22,11.20
2016,05,07,04,23,11.20
2016,05,07,04,24,11.10
2016,05,07,04,25,11.10
2016,05,07,04,26,11.10
2016,05,07,04,27,11.10
2016,05,07,04,28,11.10
2016,05,07,04,29,11.10
2016,05,07,04,30,11.10
2016,05,07,04,31,11.10
2016,05,07,04,32,11.10
2016,05,07,04,33,11.10
2016,05,07,04,34,11.10
2016,05,07,04,35,11.10
2016,05,07,04,36,11.10
2016,05,07,04,37,11.10
2016,05,07,04,38,11.10
2016,05,07,04,39,11.10
2016,05,07,04,40,11.10
2016,05,07,04,41,11.00
2016,05,07,04,42,11.00
2016,05,07,04,43,11.00
2016,05,07,04,44,11.00
2016,05,07,04,45,11.00
2016,05,07,04,46,10.90
2016,05,07,04,47,10.90
2016,05,07,04,48,10.90
2016,05,07,04,49,10.90
2016,05,07,04,50,10.90
2016,05,07,04,51,10.90
2016,05,07,04,52,10.90
2016,05,07,04,53,10.90
2016,05,07,04,54,10.90
2016,05,07,04,55,10.90
2016,05,07,04,56,10.80
2016,05,07,04,57,10.80
2016,05,07,04,58,10.80
2016,05,07,04,59,10.90
2016,05,07,05,00,10.90
2016,05,07,05,01,10.90
2016,05,07,05,02,10.90
2016,05,07,05,03,10.90
2016,05,07,05,04,10.90
2016,05,07,05,05,11.00
2016,05,07,05,06,11.00
2016,05,07,05,07,11.00
2016,05,07,05,08,10.90
2016,05,07,05,09,10.90
2016,05,07,05,10,10.90
2016,05,07,05,11,10.90
2016,05,07,05,12,10.90
2016,05,07,05,13,10.80
2016,05,07,05,14,10.80
2016,05,07,05,15,10.80
2016,05,07,05,16,10.80
2016,05,07,05,17,10.80
2016,05,07,05,18,10.70
2016,05,07,05,19,10.70
2016,05,07,05,20,10.70
2016,05,07,05,21,10.70
2016,05,07,05,22,10.70
2016,05,07,05,23,10.70
2016,05,07,05,24,10.70
2016,05,07,05,25,10.70
2016,05,07,05,26,10.70
2016,05,07,05,27,10.70
2016,05,07,05,28,10.70
2016,05,07,05,29,10.70
2016,05,07,05,30,10.70
2016,05,07,05,31,10.60
2016,05,07,05,32,10.60
2016,05,07,05,33,10.60
2016,05,07,05,34,10.60
2016,05,07,05,35,10.60
2016,05,07,05,36,10.60
2016,05,07,05,37,10.50
2016,05,07,05,38,10.50
2016,05,07,05,39,10.50
2016,05,07,05,40,10.50
2016,05,07,05,41,10.50
2016,05,07,05,42,10.50
2016,05,07,05,43,10.40
2016,05,07,05,44,10.50
2016,05,07,05,45,10.50
2016,05,07,05,46,10.50
2016,05,07,05,47,10.50
2016,05,07,05,48,10.50
2016,05,07,05,49,10.40
2016,05,07,05,50,10.40
2016,05,07,05,51,10.40
2016,05,07,05,52,10.40
2016,05,07,05,53,10.40
2016,05,07,05,54,10.40
2016,05,07,05,55,10.40
2016,05,07,05,56,10.50
2016,05,07,05,57,10.50
2016,05,07,05,58,10.50
2016,05,07,05,59,10.50
2016,05,07,06,00,10.50
2016,05,07,06,01,10.50
2016,05,07,06,02,10.50
2016,05,07,06,03,10.50
2016,05,07,06,04,10.50
2016,05,07,06,05,10.50
2016,05,07,06,06,10.60
2016,05,07,06,07,10.60
2016,05,07,06,08,10.60
2016,05,07,06,09,10.60
2016,05,07,06,10,10.60
2016,05,07,06,11,10.60
2016,05,07,06,12,10.60
2016,05,07,06,13,10.60
2016,05,07,06,14,10.60
2016,05,07,06,15,10.60
2016,05,07,06,16,10.60
2016,05,07,06,17,10.60
2016,05,07,06,18,10.70
2016,05,07,06,19,10.70
2016,05,07,06,20,10.70
2016,05,07,06,21,10.70
2016,05,07,06,22,10.70
2016,05,07,06,23,10.80
2016,05,07,06,24,10.80
2016,05,07,06,25,10.80
2016,05,07,06,26,10.90
2016,05,07,06,27,10.90
2016,05,07,06,28,11.00
2016,05,07,06,29,11.00
2016,05,07,06,30,11.10
2016,05,07,06,31,11.10
2016,05,07,06,32,11.20
2016,05,07,06,33,11.20
2016,05,07,06,34,11.20
2016,05,07,06,35,11.20
2016,05,07,06,36,11.30
2016,05,07,06,37,11.30
2016,05,07,06,38,11.30
2016,05,07,06,39,11.40
2016,05,07,06,40,11.40
2016,05,07,06,41,11.50
2016,05,07,06,42,11.60
2016,05,07,06,43,11.60
2016,05,07,06,44,11.70
2016,05,07,06,45,11.80
2016,05,07,06,46,11.80
2016,05,07,06,47,11.90
2016,05,07,06,48,11.90
2016,05,07,06,49,12.00
2016,05,07,06,50,12.00
2016,05,07,06,51,12.10
2016,05,07,06,52,12.10
2016,05,07,06,53,12.20
2016,05,07,06,54,12.20
2016,05,07,06,55,12.20
2016,05,07,06,56,12.20
2016,05,07,06,57,12.30
2016,05,07,06,58,12.30
2016,05,07,06,59,12.30
2016,05,07,07,00,12.30
2016,05,07,07,01,12.40
2016,05,07,07,02,12.40
2016,05,07,07,03,12.40
2016,05,07,07,04,12.50
2016,05,07,07,05,12.50
2016,05,07,07,06,12.60
2016,05,07,07,07,12.70
2016,05,07,07,08,12.70
2016,05,07,07,09,12.80
2016,05,07,07,10,12.80
2016,05,07,07,11,12.90
2016,05,07,07,12,13.00
2016,05,07,07,13,13.10
2016,05,07,07,14,13.20
2016,05,07,07,15,13.20
2016,05,07,07,16,13.30
2016,05,07,07,17,13.30
2016,05,07,07,18,13.40
2016,05,07,07,19,13.40
2016,05,07,07,20,13.50
2016,05,07,07,21,13.60
2016,05,07,07,22,13.60
2016,05,07,07,23,13.70
2016,05,07,07,24,13.70
2016,05,07,07,25,13.80
2016,05,07,07,26,13.90
2016,05,07,07,27,13.90
2016,05,07,07,28,14.00
2016,05,07,07,29,14.10
2016,05,07,07,30,14.10
2016,05,07,07,31,14.10
2016,05,07,07,32,14.10
2016,05,07,07,33,14.10
2016,05,07,07,34,14.10
2016,05,07,07,35,14.10
2016,05,07,07,36,14.20
2016,05,07,07,37,14.20
2016,05,07,07,38,14.20
2016,05,07,07,39,14.30
2016,05,07,07,40,14.30
2016,05,07,07,41,14.30
2016,05,07,07,42,14.30
2016,05,07,07,43,14.40
2016,05,07,07,44,14.40
2016,05,07,07,45,14.40
2016,05,07,07,46,14.50
2016,05,07,07,47,14.60
2016,05,07,07,48,14.60
2016,05,07,07,49,14.70
2016,05,07,07,50,14.70
2016,05,07,07,51,14.80
2016,05,07,07,52,14.80
2016,05,07,07,53,14.80
2016,05,07,07,54,14.90
2016,05,07,07,55,14.90
2016,05,07,07,56,14.90
2016,05,07,07,57,14.90
2016,05,07,07,58,15.00
2016,05,07,07,59,15.00
2016,05,07,08,00,15.10
2016,05,07,08,01,15.10
2016,05,07,08,02,15.20
2016,05,07,08,03,15.20
2016,05,07,08,04,15.30
2016,05,07,08,05,15.30
2016,05,07,08,06,15.30
2016,05,07,08,07,15.30
2016,05,07,08,08,15.30
2016,05,07,08,09,15.30
2016,05,07,08,10,15.30
2016,05,07,08,11,15.30
2016,05,07,08,12,15.30
2016,05,07,08,13,15.40
2016,05,07,08,14,15.40
2016,05,07,08,15,15.40
2016,05,07,08,16,15.40
2016,05,07,08,17,15.40
2016,05,07,08,18,15.40
2016,05,07,08,19,15.50
2016,05,07,08,20,15.50
2016,05,07,08,21,15.50
2016,05,07,08,22,15.60
2016,05,07,08,23,15.60
2016,05,07,08,24,15.60
2016,05,07,08,25,15.70
2016,05,07,08,26,15.70
2016,05,07,08,27,15.70
2016,05,07,08,28,15.80
2016,05,07,08,29,15.80
2016,05,07,08,30,15.80
2016,05,07,08,31,15.90
2016,05,07,08,32,16.00
2016,05,07,08,33,16.00
2016,05,07,08,34,16.10
2016,05,07,08,35,16.10
2016,05,07,08,36,16.20
2016,05,07,08,37,16.20
2016,05,07,08,38,16.30
2016,05,07,08,39,16.30
2016,05,07,08,40,16.30
2016,05,07,08,41,16.40
2016,05,07,08,42,16.40
2016,05,07,08,43,16.50
2016,05,07,08,44,16.60
2016,05,07,08,45,16.60
2016,05,07,08,46,16.70
2016,05,07,08,47,16.70
2016,05,07,08,48,16.80
2016,05,07,08,49,16.90
2016,05,07,08,50,16.90
2016,05,07,08,51,17.00
2016,05,07,08,52,17.10
2016,05,07,08,53,17.10
2016,05,07,08,54,17.20
2016,05,07,08,55,17.30
2016,05,07,08,56,17.30
2016,05,07,08,57,17.30
2016,05,07,08,58,17.40
2016,05,07,08,59,17.40
2016,05,07,09,00,17.50
2016,05,07,09,01,17.60
2016,05,07,09,02,17.70
2016,05,07,09,03,17.80
2016,05,07,09,04,17.80
2016,05,07,09,05,17.90
2016,05,07,09,06,18.00
2016,05,07,09,07,18.10
2016,05,07,09,08,18.20
2016,05,07,09,09,18.40
2016,05,07,09,10,18.50
2016,05,07,09,11,18.60
2016,05,07,09,12,18.60
2016,05,07,09,13,18.70
2016,05,07,09,14,18.70
2016,05,07,09,15,18.70
2016,05,07,09,16,18.80
2016,05,07,09,17,18.80
2016,05,07,09,18,18.90
2016,05,07,09,19,19.00
2016,05,07,09,20,19.20
2016,05,07,09,21,19.30
2016,05,07,09,22,19.50
2016,05,07,09,23,19.60
2016,05,07,09,24,19.60
2016,05,07,09,25,19.70
2016,05,07,09,26,19.70
2016,05,07,09,27,19.70
2016,05,07,09,28,19.70
2016,05,07,09,29,19.70
2016,05,07,09,30,19.60
2016,05,07,09,31,19.60
2016,05,07,09,32,19.60
2016,05,07,09,33,19.60
2016,05,07,09,34,19.60
2016,05,07,09,35,19.60
2016,05,07,09,36,19.60
2016,05,07,09,37,19.60
2016,05,07,09,38,19.60
2016,05,07,09,39,19.70
2016,05,07,09,40,19.70
2016,05,07,09,41,19.70
2016,05,07,09,42,19.80
2016,05,07,09,43,19.80
2016,05,07,09,44,19.80
2016,05,07,09,45,19.90
2016,05,07,09,46,19.90
2016,05,07,09,47,19.90
2016,05,07,09,48,19.90
2016,05,07,09,49,20.00
2016,05,07,09,50,20.10
2016,05,07,09,51,20.20
2016,05,07,09,52,20.20
2016,05,07,09,53,20.10
2016,05,07,09,54,20.00
2016,05,07,09,55,19.90
2016,05,07,09,56,19.80
2016,05,07,09,57,19.80
2016,05,07,09,58,19.70
2016,05,07,09,59,19.70
2016,05,07,10,00,19.70
2016,05,07,10,01,19.70
2016,05,07,10,02,19.70
2016,05,07,10,03,19.60
2016,05,07,10,04,19.50
2016,05,07,10,05,19.40
2016,05,07,10,06,19.30
2016,05,07,10,07,19.20
2016,05,07,10,08,19.20
2016,05,07,10,09,19.00
2016,05,07,10,10,18.80
2016,05,07,10,11,18.70
2016,05,07,10,12,18.60
2016,05,07,10,13,18.60
2016,05,07,10,14,18.60
2016,05,07,10,15,18.60
2016,05,07,10,16,18.60
2016,05,07,10,17,18.60
2016,05,07,10,18,18.70
2016,05,07,10,19,18.70
2016,05,07,10,20,18.70
2016,05,07,10,21,18.70
2016,05,07,10,22,18.80
2016,05,07,10,23,18.80
2016,05,07,10,24,18.80
2016,05,07,10,25,18.90
2016,05,07,10,26,19.00
2016,05,07,10,27,19.00
2016,05,07,10,28,19.10
2016,05,07,10,29,19.10
2016,05,07,10,30,19.20
2016,05,07,10,31,19.20
2016,05,07,10,32,19.20
2016,05,07,10,33,19.20
2016,05,07,10,34,19.20
2016,05,07,10,35,19.10
2016,05,07,10,36,19.00
2016,05,07,10,37,19.00
2016,05,07,10,38,19.00
2016,05,07,10,39,19.10
2016,05,07,10,40,19.20
2016,05,07,10,41,19.20
2016,05,07,10,42,19.20
2016,05,07,10,43,19.30
2016,05,07,10,44,19.30
2016,05,07,10,45,19.40
2016,05,07,10,46,19.50
2016,05,07,10,47,19.50
2016,05,07,10,48,19.50
2016,05,07,10,49,19.50
2016,05,07,10,50,19.60
2016,05,07,10,51,19.70
2016,05,07,10,52,19.70
2016,05,07,10,53,19.70
2016,05,07,10,54,19.70
2016,05,07,10,55,19.80
2016,05,07,10,56,19.80
2016,05,07,10,57,19.90
2016,05,07,10,58,20.00
2016,05,07,10,59,20.00
2016,05,07,11,00,20.10
2016,05,07,11,01,20.10
2016,05,07,11,02,20.10
2016,05,07,11,03,20.10
2016,05,07,11,04,20.10
2016,05,07,11,05,20.10
2016,05,07,11,06,20.00
2016,05,07,11,07,19.90
2016,05,07,11,08,19.90
2016,05,07,11,09,19.80
2016,05,07,11,10,19.60
2016,05,07,11,11,19.40
2016,05,07,11,12,19.20
2016,05,07,11,13,19.10
2016,05,07,11,14,19.00
2016,05,07,11,15,18.80
2016,05,07,11,16,18.70
2016,05,07,11,17,18.70
2016,05,07,11,18,18.60
2016,05,07,11,19,18.60
2016,05,07,11,20,18.50
2016,05,07,11,21,18.40
2016,05,07,11,22,18.40
2016,05,07,11,23,18.40
2016,05,07,11,24,18.30
2016,05,07,11,25,18.30
2016,05,07,11,26,18.30
2016,05,07,11,27,18.30
2016,05,07,11,28,18.30
2016,05,07,11,29,18.40
2016,05,07,11,30,18.50
2016,05,07,11,31,18.60
2016,05,07,11,32,18.50
2016,05,07,11,33,18.50
2016,05,07,11,34,18.60
2016,05,07,11,35,18.60
2016,05,07,11,36,18.70
2016,05,07,11,37,18.60
2016,05,07,11,38,18.50
2016,05,07,11,39,18.30
2016,05,07,11,40,18.10
2016,05,07,11,41,18.00
2016,05,07,11,42,17.80
2016,05,07,11,43,17.70
2016,05,07,11,44,17.50
2016,05,07,11,45,17.40
2016,05,07,11,46,17.20
2016,05,07,11,47,17.10
2016,05,07,11,48,17.10
2016,05,07,11,49,17.10
2016,05,07,11,50,17.10
2016,05,07,11,51,17.20
2016,05,07,11,52,17.20
2016,05,07,11,53,17.30
2016,05,07,11,54,17.30
2016,05,07,11,55,17.30
2016,05,07,11,56,17.40
2016,05,07,11,57,17.50
2016,05,07,11,58,17.60
2016,05,07,11,59,17.70
2016,05,07,12,00,17.80
2016,05,07,12,01,17.90
2016,05,07,12,02,18.10
2016,05,07,12,03,18.20
2016,05,07,12,04,18.30
2016,05,07,12,05,18.20
2016,05,07,12,06,18.20
2016,05,07,12,07,18.20
2016,05,07,12,08,18.20
2016,05,07,12,09,18.30
2016,05,07,12,10,18.40
2016,05,07,12,11,18.50
2016,05,07,12,12,18.60
2016,05,07,12,13,18.70
2016,05,07,12,14,18.80
2016,05,07,12,15,18.90
2016,05,07,12,16,18.90
2016,05,07,12,17,19.00
2016,05,07,12,18,19.10
2016,05,07,12,19,19.10
2016,05,07,12,20,19.00
2016,05,07,12,21,19.00
2016,05,07,12,22,19.10
2016,05,07,12,23,19.10
2016,05,07,12,24,19.00
2016,05,07,12,25,19.00
2016,05,07,12,26,19.00
2016,05,07,12,27,18.90
2016,05,07,12,28,18.80
2016,05,07,12,29,18.80
2016,05,07,12,30,18.80
2016,05,07,12,31,18.80
2016,05,07,12,32,18.80
2016,05,07,12,33,18.80
2016,05,07,12,34,18.80
2016,05,07,12,35,18.80
2016,05,07,12,36,18.80
2016,05,07,12,37,18.80
2016,05,07,12,38,18.80
2016,05,07,12,39,18.80
2016,05,07,12,40,18.80
2016,05,07,12,41,18.90
2016,05,07,12,42,18.80
2016,05,07,12,43,18.80
2016,05,07,12,44,18.80
2016,05,07,12,45,18.90
2016,05,07,12,46,18.90
2016,05,07,12,47,18.90
2016,05,07,12,48,18.90
2016,05,07,12,49,18.90
2016,05,07,12,50,18.80
2016,05,07,12,51,18.90
2016,05,07,12,52,18.80
2016,05,07,12,53,18.80
2016,05,07,12,54,18.80
2016,05,07,12,55,18.90
2016,05,07,12,56,19.10
2016,05,07,12,57,19.10
2016,05,07,12,58,19.20
2016,05,07,12,59,19.10
2016,05,07,13,00,19.10
2016,05,07,13,01,19.00
2016,05,07,13,02,18.80
2016,05,07,13,03,18.80
2016,05,07,13,04,18.80
2016,05,07,13,05,18.80
2016,05,07,13,06,18.70
2016,05,07,13,07,18.60
2016,05,07,13,08,18.50
2016,05,07,13,09,18.50
2016,05,07,13,10,18.40
2016,05,07,13,11,18.40
2016,05,07,13,12,18.50
2016,05,07,13,13,18.50
2016,05,07,13,14,18.50
2016,05,07,13,15,18.60
2016,05,07,13,16,18.60
2016,05,07,13,17,18.60
2016,05,07,13,18,18.70
2016,05,07,13,19,18.70
2016,05,07,13,20,18.60
2016,05,07,13,21,18.60
2016,05,07,13,22,18.50
2016,05,07,13,23,18.50
2016,05,07,13,24,18.50
2016,05,07,13,25,18.40
2016,05,07,13,26,18.40
2016,05,07,13,27,18.40
2016,05,07,13,28,18.40
2016,05,07,13,29,18.20
2016,05,07,13,30,18.10
2016,05,07,13,31,18.10
2016,05,07,13,32,18.20
2016,05,07,13,33,18.20
2016,05,07,13,34,18.20
2016,05,07,13,35,18.20
2016,05,07,13,36,18.20
2016,05,07,13,37,18.30
2016,05,07,13,38,18.30
2016,05,07,13,39,18.20
2016,05,07,13,40,18.10
2016,05,07,13,41,18.00
2016,05,07,13,42,17.80
2016,05,07,13,43,17.70
2016,05,07,13,44,17.70
2016,05,07,13,45,17.60
2016,05,07,13,46,17.60
2016,05,07,13,47,17.60
2016,05,07,13,48,17.70
2016,05,07,13,49,17.80
2016,05,07,13,50,17.90
2016,05,07,13,51,17.90
2016,05,07,13,52,18.00
2016,05,07,13,53,17.80
2016,05,07,13,54,17.50
2016,05,07,13,55,17.30
2016,05,07,13,56,17.20
2016,05,07,13,57,17.20
2016,05,07,13,58,17.00
2016,05,07,13,59,16.70
2016,05,07,14,00,16.40
2016,05,07,14,01,16.20
2016,05,07,14,02,16.20
2016,05,07,14,03,16.10
2016,05,07,14,04,15.90
2016,05,07,14,05,15.80
2016,05,07,14,06,15.80
2016,05,07,14,07,15.70
2016,05,07,14,08,15.70
2016,05,07,14,09,15.70
2016,05,07,14,10,15.80
2016,05,07,14,11,15.90
2016,05,07,14,12,16.10
2016,05,07,14,13,16.30
2016,05,07,14,14,16.40
2016,05,07,14,15,16.50
2016,05,07,14,16,16.50
2016,05,07,14,17,16.50
2016,05,07,14,18,16.50
2016,05,07,14,19,16.60
2016,05,07,14,20,16.70
2016,05,07,14,21,16.80
2016,05,07,14,22,16.80
2016,05,07,14,23,16.80
2016,05,07,14,24,16.90
2016,05,07,14,25,16.90
2016,05,07,14,26,17.00
2016,05,07,14,27,17.10
2016,05,07,14,28,17.10
2016,05,07,14,29,17.10
2016,05,07,14,30,17.10
2016,05,07,14,31,17.10
2016,05,07,14,32,17.10
2016,05,07,14,33,17.00
2016,05,07,14,34,17.00
2016,05,07,14,35,17.00
2016,05,07,14,36,17.00
2016,05,07,14,37,17.10
2016,05,07,14,38,17.30
2016,05,07,14,39,17.20
2016,05,07,14,40,17.30
2016,05,07,14,41,17.30
2016,05,07,14,42,17.20
2016,05,07,14,43,17.20
2016,05,07,14,44,17.30
2016,05,07,14,45,17.30
2016,05,07,14,46,17.30
2016,05,07,14,47,17.40
2016,05,07,14,48,17.60
2016,05,07,14,49,17.90
2016,05,07,14,50,18.20
2016,05,07,14,51,18.50
2016,05,07,14,52,18.90
2016,05,07,14,53,19.30
2016,05,07,14,54,19.80
2016,05,07,14,55,20.20
2016,05,07,14,56,20.70
2016,05,07,14,57,21.20
2016,05,07,14,58,21.60
2016,05,07,14,59,22.10
2016,05,07,15,00,22.50
2016,05,07,15,01,22.90
2016,05,07,15,02,23.10
2016,05,07,15,03,23.30
2016,05,07,15,04,23.50
2016,05,07,15,05,23.70
2016,05,07,15,06,23.80
2016,05,07,15,07,23.90
2016,05,07,15,08,24.00
2016,05,07,15,09,24.00
2016,05,07,15,10,24.00
2016,05,07,15,11,23.90
2016,05,07,15,12,23.80
2016,05,07,15,13,23.70
2016,05,07,15,14,23.50
2016,05,07,15,15,23.30
2016,05,07,15,16,23.20
2016,05,07,15,17,23.20
2016,05,07,15,18,23.10
2016,05,07,15,19,23.10
2016,05,07,15,20,23.10
2016,05,07,15,21,23.10
2016,05,07,15,22,23.00
2016,05,07,15,23,23.00
2016,05,07,15,24,23.00
2016,05,07,15,25,22.90
2016,05,07,15,26,22.80
2016,05,07,15,27,22.60
2016,05,07,15,28,22.30
2016,05,07,15,29,22.10
2016,05,07,15,30,22.00
2016,05,07,15,31,21.80
2016,05,07,15,32,21.70
2016,05,07,15,33,21.70
2016,05,07,15,34,21.70
2016,05,07,15,35,21.50
2016,05,07,15,36,21.40
2016,05,07,15,37,21.30
2016,05,07,15,38,21.30
2016,05,07,15,39,21.20
2016,05,07,15,40,21.10
2016,05,07,15,41,20.90
2016,05,07,15,42,20.80
2016,05,07,15,43,20.50
2016,05,07,15,44,20.30
2016,05,07,15,45,20.20
2016,05,07,15,46,19.90
2016,05,07,15,47,19.60
2016,05,07,15,48,19.50
2016,05,07,15,49,19.40
2016,05,07,15,50,19.40
2016,05,07,15,51,19.20
2016,05,07,15,52,19.10
2016,05,07,15,53,19.00
2016,05,07,15,54,19.00
2016,05,07,15,55,19.00
2016,05,07,15,56,19.00
2016,05,07,15,57,19.10
2016,05,07,15,58,19.20
2016,05,07,15,59,19.20
2016,05,07,16,00,19.10
2016,05,07,16,01,19.00
2016,05,07,16,02,18.90
2016,05,07,16,03,18.80
2016,05,07,16,04,18.70
2016,05,07,16,05,18.50
2016,05,07,16,06,18.40
2016,05,07,16,07,18.50
2016,05,07,16,08,18.50
2016,05,07,16,09,18.50
2016,05,07,16,10,18.40
2016,05,07,16,11,18.30
2016,05,07,16,12,18.30
2016,05,07,16,13,18.30
2016,05,07,16,14,18.30
2016,05,07,16,15,18.30
2016,05,07,16,16,18.30
2016,05,07,16,17,18.20
2016,05,07,16,18,18.20
2016,05,07,16,19,18.30
2016,05,07,16,20,18.20
2016,05,07,16,21,18.20
2016,05,07,16,22,18.20
2016,05,07,16,23,18.10
2016,05,07,16,24,18.10
2016,05,07,16,25,18.00
2016,05,07,16,26,17.90
2016,05,07,16,27,17.80
2016,05,07,16,28,17.80
2016,05,07,16,29,17.80
2016,05,07,16,30,17.80
2016,05,07,16,31,17.80
2016,05,07,16,32,17.70
2016,05,07,16,33,17.80
2016,05,07,16,34,17.80
2016,05,07,16,35,17.80
2016,05,07,16,36,17.90
2016,05,07,16,37,17.90
2016,05,07,16,38,17.80
2016,05,07,16,39,17.80
2016,05,07,16,40,17.90
2016,05,07,16,41,17.90
2016,05,07,16,42,17.90
2016,05,07,16,43,17.90
2016,05,07,16,44,17.80
2016,05,07,16,45,17.80
2016,05,07,16,46,17.80
2016,05,07,16,47,17.70
2016,05,07,16,48,17.70
2016,05,07,16,49,17.60
2016,05,07,16,50,17.40
2016,05,07,16,51,17.30
2016,05,07,16,52,17.30
2016,05,07,16,53,17.20
2016,05,07,16,54,17.10
2016,05,07,16,55,17.00
2016,05,07,16,56,16.90
2016,05,07,16,57,16.80
2016,05,07,16,58,16.80
2016,05,07,16,59,16.80
2016,05,07,17,00,16.80
2016,05,07,17,01,16.80
2016,05,07,17,02,16.90
2016,05,07,17,03,16.90
2016,05,07,17,04,16.90
2016,05,07,17,05,16.90
2016,05,07,17,06,16.70
2016,05,07,17,07,16.60
2016,05,07,17,08,16.60
2016,05,07,17,09,16.60
2016,05,07,17,10,16.60
2016,05,07,17,11,16.50
2016,05,07,17,12,16.40
2016,05,07,17,13,16.40
2016,05,07,17,14,16.40
2016,05,07,17,15,16.40
2016,05,07,17,16,16.30
2016,05,07,17,17,16.30
2016,05,07,17,18,16.30
2016,05,07,17,19,16.20